Regional Weather Roundup
Issued by NWS

Home | Current Version | Previous Version | Text Only | Print | Product List | Glossary On
Versions: 1 2 3 4 5 6 7 8 9 10 11 12 13 14 15 16 17 18 19 20 21 22 23 24 25 26 27 28 29 30 31 32 33 34 35 36 37 38 39 40 41 42 43 44 45 46 47 48 49 50
408
ASUS44 KJAN 040610
RWRMS

MISSISSIPPI HOURLY WEATHER ROUNDUP
NATIONAL WEATHER SERVICE JACKSON MS
1200 AM CST WED MAR 04 2015

NOTE: "FAIR: INDICATES FEW OR NO CLOUDS BELOW 12,000 FEET WITH NO
SIGNIFICANT WEATHER AND/OR OBSTRUCTIONS TO VISIBILITY.

MSZ001>002-007>008-010>013-018>021-025>028-034>036-040700-
NORTHWEST MISSISSIPPI

CITY           SKY/WX    TMP DP  RH WIND       PRES   REMARKS
CLARKSDALE     FAIR      61  61 100 S9        29.88F
CLEVELAND      FAIR      63  63 100 S12       29.89F
GREENWOOD      MOCLDY    67  65  93 S13       29.93F
6HR MIN TEMP:  64; 6HR MAX TEMP:  71;

GREENVILLE     CLEAR     64  61  90 S13       29.90F
6HR MIN TEMP:  56; 6HR MAX TEMP:  68;

OLIVE BRANCH   PTCLDY    61 N/A N/A S12       29.87F
OXFORD         CLOUDY    64  64 100 S14G22    29.91F
TUNICA         PTCLDY    59  57  94 S6        29.88F FOG
$$

MSZ003>006-009-014>017-022>024-029>033-037>039-040700-
NORTHEAST MISSISSIPPI

CITY           SKY/WX    TMP DP  RH WIND       PRES   REMARKS
COLUMBUS AFB   CLOUDY    65  65 100 S8        29.96S
6HR MIN TEMP:  65; 6HR MAX TEMP:  69; 6HR PCP:  0.07;

CORINTH        CLOUDY    66  64  94 S8        29.89F
GOLDN TRIANGLE CLOUDY    64  63  94 S9        29.97S
STARKVILLE     CLOUDY    64  63  94 SW6       29.97S
TUPELO         CLOUDY    65  63  93 SW10      29.93F
6HR MIN TEMP:  61; 6HR MAX TEMP:  66; 6HR PCP:  0.04;

$$

MSZ040-058-040700-
CENTRAL MISSISSIPPI

CITY           SKY/WX    TMP DP  RH WIND       PRES   REMARKS
JACKSON INTL   CLOUDY    68  66  93 S10       29.98S
6HR MIN TEMP:  67; 6HR MAX TEMP:  69; 6HR PCP:  0.09;

JACKSON HAWKNS CLOUDY    68  65  90 S8        29.98F
6HR MIN TEMP:  67; 6HR MAX TEMP:  69; 6HR PCP:  0.02;

MERIDIAN KEY   CLOUDY    66  63  90 S12       30.01F
6HR MIN TEMP:  66; 6HR MAX TEMP:  70;

MERIDIAN NAS   CLOUDY    67  62  84 S9G17     30.01F
6HR MIN TEMP:  67; 6HR MAX TEMP:  70;

VICKSBURG      MOCLDY    67  64  90 S6        29.96S
6HR MIN TEMP:  65; 6HR MAX TEMP:  72; 6HR PCP: TRACE;

$$

MSZ059>079-040700-
SOUTH MISSISSIPPI

CITY           SKY/WX    TMP DP  RH WIND       PRES   REMARKS
BROOKHAVEN     CLOUDY    68  68 100 S8        30.01S
HATTIESBURG    CLOUDY    68  65  90 S6        30.03F
6HR MIN TEMP:  68; 6HR MAX TEMP:  72;

MCCOMB         CLOUDY    67  65  93 S7        29.99F
6HR MIN TEMP:  66; 6HR MAX TEMP:  69; 6HR PCP:  0.13;

NATCHEZ        CLOUDY    68  66  94 S8        29.97F
6HR MIN TEMP:  66; 6HR MAX TEMP:  75;

PINE BELT      CLOUDY    66  63  88 S9        30.03F
6HR MIN TEMP:  66; 6HR MAX TEMP:  70;

$$

MSZ080>082-040700-
COASTAL MISSISSIPPI

CITY           SKY/WX    TMP DP  RH WIND       PRES   REMARKS
BILOXI         CLOUDY    66  66 100 SE9       30.03S FOG
6HR MIN TEMP:  66; 6HR MAX TEMP:  67;

PASCAGOULA     CLOUDY    66  65  96 S13       30.04F
6HR MIN TEMP:  64; 6HR MAX TEMP:  67;

GULFPORT       CLOUDY    64  63  96 SE10      30.03F FOG
6HR MIN TEMP:  64; 6HR MAX TEMP:  66;

$$



USA.gov is the U.S. government's official web portal to all federal, state and local government web resources and services.